Regional Weather Roundup
Issued by NWS

Home | Current Version | Previous Version | Graphics & Text | Print | Product List | Glossary On
Versions: 1 2 3 4 5 6 7 8 9 10 11 12 13 14 15 16 17 18 19 20 21 22 23 24 25 26 27 28 29 30 31 32 33 34 35 36 37 38 39 40 41 42 43 44 45 46 47 48 49 50
000
ASUS43 KLMK 251210
RWRKY
KENTUCKY REGIONAL WEATHER ROUNDUP
NATIONAL WEATHER SERVICE LOUISVILLE KY
800 AM EDT SAT MAR 25 2017

NOTE "FAIR" INDICATES FEW OR NO CLOUDS BELOW 12,000 FEET
WITH NO SIGNIFICANT WEATHER AND/OR OBSTRUCTIONS TO VISIBILITY.

KYZ001>023-026-027-061>063-070>075-251300-
WESTERN AND SOUTH CENTRAL KENTUCKY

CITY           SKY/WX    TMP DP  RH WIND       PRES   REMARKS
PADUCAH        CLOUDY    56  53  90 SE12      29.97F
HENDERSON      CLOUDY    61  52  72 S13       30.02R
OWENSBORO      CLOUDY    63  53  70 S9        30.04R
HOPKINSVILLE   CLOUDY    66  54  66 S9G20     30.03R
BOWLING GREEN  CLOUDY    66  50  56 S14       30.07S
GLASGOW        PTCLDY    61  48  63 S5        30.11R
$$

KYZ024-025-028>034-038-045-046-053-251300-
NORTH CENTRAL KENTUCKY

CITY           SKY/WX    TMP DP  RH WIND       PRES   REMARKS
LOUISVILLE/SDF MOCLDY    58  47  66 SE8       30.08S
LOUISVILLE/LOU CLEAR     60  48  64 SE6       30.09S
FORT KNOX      CLOUDY    60  49  66 SE13      30.06F
$$

KYZ035>037-039>044-047>052-055>060-089>105-251300-
NORTHEAST KENTUCKY

CITY           SKY/WX    TMP DP  RH WIND       PRES   REMARKS
LEXINGTON      CLEAR     57  46  66 SE12      30.15R
COVINGTON      CLOUDY    55  49  80 S10       30.12R
FRANKFORT      CLEAR     57  46  66 SE7       30.12R
$$

KYZ054-064>069-076>088-106>120-251300-
SOUTHEAST KENTUCKY

CITY           SKY/WX    TMP DP  RH WIND       PRES   REMARKS
JACKSON        CLEAR     60  46  59 S6        30.20R
LONDON         CLEAR     58  44  60 SE5       30.19R
SOMERSET       CLEAR     61  45  55 S7        30.18S
MIDDLESBORO    CLEAR     50  47  88 CALM      30.23R
MONTICELLO     SUNNY     61  48  62 VRB6      30.18R
$$




USA.gov is the U.S. government's official web portal to all federal, state and local government web resources and services.